Tracking 19562 objects as of 25-Mar-2019
HD Live streaming from Space Station
objects crossing your sky now

COSMOS 2363 (GLONASS)

Track COSMOS 2363 (GLONASS) now!
COSMOS 2363 (GLONASS) is classified as:


NORAD ID: 25594
Int'l Code: 1998-077B
Perigee: 19,084.5 km
Apogee: 19,189.3 km
Inclination: 63.3 °
Period: 675.7 minutes
Semi major axis: 25507 km
RCS: 3.981 m2 (large)
Launch date: December 30, 1998
Source: Commonwealth of Independent States (former USSR) (CIS)
Launch site: TYURATAM MISSILE AND SPACE COMPLEX (TTMTR)
aabbcc
Your satellite tracking list
Your tracking list is empty




NASA's NSSDC Master Catalog

Two Line Element Set (TLE):
1 25594U 98077B   19083.39639052 +.00000009 +00000-0 +00000-0 0  9993
2 25594 063.2746 153.6974 0020528 036.3948 041.8379 02.13103740157387
Source of the keplerian elements: AFSPC